Check out our new BloomSky Weather System.

Active alerts

Houston, TX
  Details for Houston, TX Dense Fog Advisory


Thunder radar  blitzortung!


Rain radar more information rain snow radar


Visit our other weather sites:

Template documentation
and downloads

And another site



Weather Underground History page Text

Daily Summary for June 14, 2017 Units:  English    Metric   Both
« Previous Day
Next Day »
Daily Weekly Monthly Yearly Custom
  High: Low: Average:
Temperature: 92.8 °F 78.8 °F 85.2 °F
Dew Point: 78.4 °F 75.4 °F 76.7 °F
Humidity: 94 % 59 % 77 %
Wind Speed: 15.0 mph 0.0 mph 4.8 mph
Wind Gust: 16.0 mph - -
Wind:- - SSE
Pressure: 29.98 in 29.89 in -
Precipitation: 0.00 in    
Historical Graphs
 
 
Tabular Data for June 14, 2017
Time Temperature Dew Point Pressure Wind Wind Speed Wind Gust Humidity Rainfall Rate (Hourly)
00:01 81.9 °F 77.5 °F 29.92 in SSE 3.0 mph 7.0 mph 87 % 0.00 in
00:06 81.9 °F 77.5 °F 29.92 in SE 3.0 mph 7.0 mph 87 % 0.00 in
00:11 81.7 °F 77.7 °F 29.92 in East 4.0 mph 9.0 mph 88 % 0.00 in
00:16 81.7 °F 77.7 °F 29.92 in SSW 4.0 mph 9.0 mph 88 % 0.00 in
00:21 81.7 °F 77.7 °F 29.91 in SSE 7.0 mph 9.0 mph 88 % 0.00 in
00:26 81.7 °F 77.7 °F 29.92 in SSE 4.0 mph 10.0 mph 88 % 0.00 in
00:31 81.7 °F 77.7 °F 29.91 in SSE 5.0 mph 10.0 mph 88 % 0.00 in
00:36 81.9 °F 77.9 °F 29.91 in SE 4.0 mph 10.0 mph 88 % 0.00 in
00:41 81.7 °F 77.7 °F 29.91 in Calm   9.0 mph 88 % 0.00 in
00:46 81.7 °F 77.7 °F 29.91 in SE 6.0 mph 9.0 mph 88 % 0.00 in
00:51 81.7 °F 77.7 °F 29.91 in South 4.0 mph 10.0 mph 88 % 0.00 in
00:56 81.7 °F 77.7 °F 29.91 in SSE 3.0 mph 10.0 mph 88 % 0.00 in
01:01 81.7 °F 77.7 °F 29.92 in SSE 4.0 mph 10.0 mph 88 % 0.00 in
01:06 81.7 °F 77.7 °F 29.92 in SE 4.0 mph 8.0 mph 88 % 0.00 in
01:11 81.7 °F 77.7 °F 29.91 in South 3.0 mph 8.0 mph 88 % 0.00 in
01:16 81.5 °F 77.5 °F 29.91 in South 1.0 mph 7.0 mph 88 % 0.00 in
01:21 81.3 °F 77.4 °F 29.91 in SSE 2.0 mph 7.0 mph 88 % 0.00 in
01:26 81.3 °F 77.7 °F 29.91 in SSE 2.0 mph 6.0 mph 89 % 0.00 in
01:31 81.3 °F 77.7 °F 29.91 in SE 4.0 mph 6.0 mph 89 % 0.00 in
01:36 81.3 °F 77.7 °F 29.91 in SSE 4.0 mph 6.0 mph 89 % 0.00 in
01:41 81.1 °F 77.5 °F 29.91 in South 2.0 mph 6.0 mph 89 % 0.00 in
01:46 81.1 °F 77.5 °F 29.91 in South 3.0 mph 6.0 mph 89 % 0.00 in
01:52 81.1 °F 77.5 °F 29.91 in SSW 4.0 mph 9.0 mph 89 % 0.00 in
01:56 81.0 °F 77.4 °F 29.90 in South 3.0 mph 9.0 mph 89 % 0.00 in
02:02 81.0 °F 77.4 °F 29.90 in South 4.0 mph 9.0 mph 89 % 0.00 in
02:07 81.0 °F 77.4 °F 29.90 in SE 3.0 mph 11.0 mph 89 % 0.00 in
02:12 81.0 °F 77.4 °F 29.90 in ESE 7.0 mph 11.0 mph 89 % 0.00 in
02:17 81.0 °F 77.4 °F 29.90 in SE 6.0 mph 11.0 mph 89 % 0.00 in
02:22 80.8 °F 77.2 °F 29.90 in SSE 2.0 mph 10.0 mph 89 % 0.00 in
02:27 80.8 °F 77.2 °F 29.90 in ESE 1.0 mph 10.0 mph 89 % 0.00 in
02:32 80.8 °F 77.5 °F 29.90 in SSE 2.0 mph 10.0 mph 90 % 0.00 in
02:37 80.6 °F 77.4 °F 29.90 in SE 5.0 mph 10.0 mph 90 % 0.00 in
02:42 80.6 °F 77.4 °F 29.89 in South 6.0 mph 8.0 mph 90 % 0.00 in
02:47 80.4 °F 77.2 °F 29.90 in SSE 6.0 mph 8.0 mph 90 % 0.00 in
02:52 80.4 °F 77.2 °F 29.90 in South 3.0 mph 10.0 mph 90 % 0.00 in
02:57 80.4 °F 77.2 °F 29.90 in South 5.0 mph 10.0 mph 90 % 0.00 in
03:02 80.4 °F 77.2 °F 29.89 in SE 3.0 mph 10.0 mph 90 % 0.00 in
03:07 80.4 °F 77.2 °F 29.89 in SSE 3.0 mph 9.0 mph 90 % 0.00 in
03:17 80.4 °F 77.2 °F 29.89 in South 4.0 mph 9.0 mph 90 % 0.00 in
03:22 80.4 °F 77.2 °F 29.89 in SSW 3.0 mph 9.0 mph 90 % 0.00 in
03:27 80.4 °F 77.2 °F 29.89 in SE 7.0 mph 9.0 mph 90 % 0.00 in
03:32 80.4 °F 77.2 °F 29.90 in SSE 2.0 mph 8.0 mph 90 % 0.00 in
03:37 80.4 °F 77.2 °F 29.90 in SW 6.0 mph 8.0 mph 90 % 0.00 in
03:42 80.4 °F 77.5 °F 29.90 in South 3.0 mph 9.0 mph 91 % 0.00 in
03:47 80.4 °F 77.5 °F 29.90 in SSE 4.0 mph 9.0 mph 91 % 0.00 in
03:52 80.4 °F 77.5 °F 29.90 in SSE 5.0 mph 9.0 mph 91 % 0.00 in
03:57 80.2 °F 77.4 °F 29.90 in SE 3.0 mph 7.0 mph 91 % 0.00 in
04:02 80.2 °F 77.4 °F 29.90 in SSE 3.0 mph 7.0 mph 91 % 0.00 in
04:07 80.2 °F 77.4 °F 29.90 in SSE 4.0 mph 7.0 mph 91 % 0.00 in
04:12 80.2 °F 77.4 °F 29.90 in SE 3.0 mph 7.0 mph 91 % 0.00 in
04:17 80.2 °F 77.4 °F 29.90 in SSE 4.0 mph 7.0 mph 91 % 0.00 in
04:22 80.2 °F 77.4 °F 29.90 in SSE 3.0 mph 7.0 mph 91 % 0.00 in
04:27 80.2 °F 77.4 °F 29.90 in South 4.0 mph 6.0 mph 91 % 0.00 in
04:32 80.2 °F 77.4 °F 29.90 in SSE 3.0 mph 6.0 mph 91 % 0.00 in
04:37 80.2 °F 77.4 °F 29.90 in ESE 5.0 mph 8.0 mph 91 % 0.00 in
04:42 80.1 °F 77.2 °F 29.90 in ESE 2.0 mph 8.0 mph 91 % 0.00 in
04:47 80.1 °F 77.2 °F 29.90 in ESE 3.0 mph 8.0 mph 91 % 0.00 in
04:52 79.9 °F 77.4 °F 29.90 in SE 2.0 mph 7.0 mph 92 % 0.00 in
04:57 79.9 °F 77.4 °F 29.90 in SSW 2.0 mph 6.0 mph 92 % 0.00 in
05:02 79.9 °F 77.4 °F 29.90 in SE 4.0 mph 6.0 mph 92 % 0.00 in
05:07 79.7 °F 77.2 °F 29.90 in South 3.0 mph 5.0 mph 92 % 0.00 in
05:12 79.5 °F 77.0 °F 29.90 in SSE 2.0 mph 5.0 mph 92 % 0.00 in
05:17 79.5 °F 77.0 °F 29.90 in SE 1.0 mph 5.0 mph 92 % 0.00 in
05:22 79.5 °F 77.0 °F 29.90 in SSE 3.0 mph 5.0 mph 92 % 0.00 in
05:27 79.3 °F 77.2 °F 29.90 in SE 4.0 mph 6.0 mph 93 % 0.00 in
05:32 79.3 °F 77.2 °F 29.90 in SSE 1.0 mph 6.0 mph 93 % 0.00 in
05:37 79.3 °F 77.2 °F 29.90 in SE 2.0 mph 6.0 mph 93 % 0.00 in
05:42 79.2 °F 77.0 °F 29.90 in East 3.0 mph 5.0 mph 93 % 0.00 in
05:47 79.2 °F 77.0 °F 29.91 in SE 3.0 mph 5.0 mph 93 % 0.00 in
05:52 79.2 °F 77.0 °F 29.91 in SE 3.0 mph 5.0 mph 93 % 0.00 in
05:57 79.0 °F 76.8 °F 29.91 in Calm   5.0 mph 93 % 0.00 in
06:02 79.0 °F 76.8 °F 29.91 in SE 1.0 mph 5.0 mph 93 % 0.00 in
06:07 79.0 °F 76.8 °F 29.91 in SE 4.0 mph 5.0 mph 93 % 0.00 in
06:12 79.0 °F 77.2 °F 29.91 in ESE 3.0 mph 5.0 mph 94 % 0.00 in
06:17 79.0 °F 77.2 °F 29.91 in SSE 2.0 mph 5.0 mph 94 % 0.00 in
06:22 78.8 °F 77.0 °F 29.92 in SE 3.0 mph 5.0 mph 94 % 0.00 in
06:27 79.0 °F 77.2 °F 29.92 in ESE 4.0 mph 4.0 mph 94 % 0.00 in
06:32 78.8 °F 77.0 °F 29.92 in SE 2.0 mph 6.0 mph 94 % 0.00 in
06:37 79.0 °F 77.2 °F 29.92 in SE 2.0 mph 6.0 mph 94 % 0.00 in
06:47 79.0 °F 77.2 °F 29.93 in SSE 2.0 mph 5.0 mph 94 % 0.00 in
06:52 79.0 °F 77.2 °F 29.93 in ESE 3.0 mph 5.0 mph 94 % 0.00 in
06:57 79.2 °F 77.4 °F 29.93 in ESE 2.0 mph 5.0 mph 94 % 0.00 in
07:02 79.2 °F 77.4 °F 29.93 in SE 2.0 mph 7.0 mph 94 % 0.00 in
07:07 79.3 °F 77.2 °F 29.93 in SSE 3.0 mph 7.0 mph 93 % 0.00 in
07:12 79.7 °F 77.5 °F 29.93 in SSE 2.0 mph 7.0 mph 93 % 0.00 in
07:17 79.9 °F 77.4 °F 29.93 in South 4.0 mph 5.0 mph 92 % 0.00 in
07:22 80.1 °F 77.5 °F 29.93 in South 3.0 mph 8.0 mph 92 % 0.00 in
07:27 80.2 °F 77.4 °F 29.94 in SSE 3.0 mph 8.0 mph 91 % 0.00 in
07:32 80.4 °F 77.5 °F 29.94 in SE 3.0 mph 8.0 mph 91 % 0.00 in
07:37 80.8 °F 77.5 °F 29.94 in ESE 5.0 mph 8.0 mph 90 % 0.00 in
07:42 81.0 °F 77.7 °F 29.94 in SSE 4.0 mph 9.0 mph 90 % 0.00 in
07:48 81.1 °F 77.5 °F 29.94 in SSE 4.0 mph 9.0 mph 89 % 0.00 in
07:53 81.3 °F 77.7 °F 29.94 in South 5.0 mph 11.0 mph 89 % 0.00 in
07:58 81.7 °F 77.7 °F 29.94 in SE 7.0 mph 11.0 mph 88 % 0.00 in
08:03 81.9 °F 77.9 °F 29.95 in SW 5.0 mph 11.0 mph 88 % 0.00 in
08:08 82.2 °F 77.9 °F 29.95 in SSE 3.0 mph 9.0 mph 87 % 0.00 in
08:13 82.8 °F 78.4 °F 29.95 in SSE 4.0 mph 9.0 mph 87 % 0.00 in
08:18 82.9 °F 77.9 °F 29.96 in SSE 4.0 mph 9.0 mph 85 % 0.00 in
08:23 83.1 °F 77.7 °F 29.96 in SE 8.0 mph 13.0 mph 84 % 0.00 in
08:28 83.3 °F 77.5 °F 29.96 in SSE 4.0 mph 13.0 mph 83 % 0.00 in
08:33 83.7 °F 77.5 °F 29.96 in South 4.0 mph 13.0 mph 82 % 0.00 in
08:38 83.7 °F 77.5 °F 29.96 in SE 6.0 mph 11.0 mph 82 % 0.00 in
08:43 83.7 °F 77.2 °F 29.96 in SSE 7.0 mph 11.0 mph 81 % 0.00 in
08:48 83.5 °F 77.4 °F 29.96 in SSE 2.0 mph 12.0 mph 82 % 0.00 in
08:53 83.5 °F 77.4 °F 29.97 in South 7.0 mph 12.0 mph 82 % 0.00 in
08:58 83.7 °F 77.2 °F 29.96 in South 4.0 mph 12.0 mph 81 % 0.00 in
09:03 83.8 °F 77.4 °F 29.96 in South 6.0 mph 10.0 mph 81 % 0.00 in
09:08 84.2 °F 77.0 °F 29.97 in SSE 7.0 mph 10.0 mph 79 % 0.00 in
09:13 84.4 °F 77.2 °F 29.97 in SSE 7.0 mph 11.0 mph 79 % 0.00 in
09:18 84.6 °F 77.4 °F 29.96 in SSE 4.0 mph 12.0 mph 79 % 0.00 in
09:23 84.7 °F 77.2 °F 29.97 in South 7.0 mph 12.0 mph 78 % 0.00 in
09:24 84.7 °F 77.2 °F 29.97 in SSE 5.0 mph 12.0 mph 78 % 0.00 in
09:29 84.6 °F 76.5 °F 29.96 in SSW 5.0 mph 12.0 mph 77 % 0.00 in
09:34 84.6 °F 77.0 °F 29.97 in SSE 4.0 mph 13.0 mph 78 % 0.00 in
09:39 84.7 °F 77.2 °F 29.96 in SSE 3.0 mph 13.0 mph 78 % 0.00 in
09:44 85.8 °F 78.1 °F 29.97 in SW 7.0 mph 13.0 mph 78 % 0.00 in
09:49 86.4 °F 77.5 °F 29.97 in South 6.0 mph 11.0 mph 75 % 0.00 in
09:54 86.5 °F 77.2 °F 29.97 in SSW 7.0 mph 11.0 mph 74 % 0.00 in
09:59 86.5 °F 76.8 °F 29.96 in SE 6.0 mph 11.0 mph 73 % 0.00 in
10:04 86.7 °F 77.4 °F 29.96 in South 4.0 mph 11.0 mph 74 % 0.00 in
10:09 87.3 °F 77.5 °F 29.96 in ESE 7.0 mph 10.0 mph 73 % 0.00 in
10:14 87.6 °F 77.0 °F 29.97 in SE 5.0 mph 12.0 mph 71 % 0.00 in
10:19 87.3 °F 76.3 °F 29.97 in SE 5.0 mph 12.0 mph 70 % 0.00 in
10:24 87.3 °F 76.3 °F 29.97 in ESE 6.0 mph 12.0 mph 70 % 0.00 in
10:29 86.7 °F 75.7 °F 29.97 in SSE 5.0 mph 11.0 mph 70 % 0.00 in
10:34 86.7 °F 76.1 °F 29.97 in SE 5.0 mph 13.0 mph 71 % 0.00 in
10:39 86.5 °F 75.6 °F 29.97 in South 6.0 mph 13.0 mph 70 % 0.00 in
10:44 86.5 °F 76.5 °F 29.97 in South 4.0 mph 13.0 mph 72 % 0.00 in
10:49 86.5 °F 76.5 °F 29.97 in South 5.0 mph 11.0 mph 72 % 0.00 in
10:54 86.5 °F 75.9 °F 29.97 in SE 7.0 mph 11.0 mph 71 % 0.00 in
10:59 86.4 °F 75.9 °F 29.97 in SSE 4.0 mph 9.0 mph 71 % 0.00 in
11:04 86.2 °F 75.7 °F 29.97 in SSW 5.0 mph 9.0 mph 71 % 0.00 in
11:09 86.2 °F 76.1 °F 29.97 in South 5.0 mph 8.0 mph 72 % 0.00 in
11:14 86.4 °F 75.9 °F 29.97 in SSE 5.0 mph 8.0 mph 71 % 0.00 in
11:19 86.7 °F 76.1 °F 29.97 in SE 2.0 mph 8.0 mph 71 % 0.00 in
11:24 87.8 °F 77.7 °F 29.97 in East 5.0 mph 8.0 mph 72 % 0.00 in
11:29 88.5 °F 76.6 °F 29.97 in South 7.0 mph 7.0 mph 68 % 0.00 in
11:34 88.9 °F 77.4 °F 29.97 in SSE 2.0 mph 8.0 mph 69 % 0.00 in
11:39 89.8 °F 77.7 °F 29.97 in East 5.0 mph 9.0 mph 68 % 0.00 in
11:44 89.6 °F 76.6 °F 29.97 in SSW 4.0 mph 9.0 mph 66 % 0.00 in
11:50 89.4 °F 76.1 °F 29.97 in ESE 4.0 mph 10.0 mph 65 % 0.00 in
11:54 89.4 °F 76.6 °F 29.96 in East 6.0 mph 10.0 mph 66 % 0.00 in
11:59 90.0 °F 76.1 °F 29.96 in ESE 5.0 mph 10.0 mph 64 % 0.00 in
12:05 89.8 °F 75.9 °F 29.96 in ESE 5.0 mph 9.0 mph 64 % 0.00 in
12:09 89.8 °F 75.9 °F 29.96 in SSE 5.0 mph 9.0 mph 64 % 0.00 in
12:15 90.3 °F 75.9 °F 29.96 in ESE 6.0 mph 11.0 mph 63 % 0.00 in
12:20 91.0 °F 77.2 °F 29.96 in ESE 4.0 mph 13.0 mph 64 % 0.00 in
12:25 91.4 °F 75.6 °F 29.96 in SE 8.0 mph 13.0 mph 60 % 0.00 in
12:30 91.8 °F 77.4 °F 29.96 in SSE 7.0 mph 13.0 mph 63 % 0.00 in
12:35 91.8 °F 76.5 °F 29.96 in SE 6.0 mph 13.0 mph 61 % 0.00 in
12:40 91.6 °F 76.3 °F 29.96 in SE 6.0 mph 13.0 mph 61 % 0.00 in
12:45 91.6 °F 76.6 °F 29.96 in SSE 3.0 mph 12.0 mph 62 % 0.00 in
12:50 91.6 °F 75.7 °F 29.96 in ESE 12.0 mph 12.0 mph 60 % 0.00 in
12:55 90.9 °F 75.6 °F 29.96 in South 8.0 mph 14.0 mph 61 % 0.00 in
13:00 89.8 °F 75.9 °F 29.96 in South 4.0 mph 14.0 mph 64 % 0.00 in
13:05 88.9 °F 76.1 °F 29.96 in SSE 7.0 mph 14.0 mph 66 % 0.00 in
13:10 88.3 °F 75.9 °F 29.96 in SSW 5.0 mph 13.0 mph 67 % 0.00 in
13:15 88.5 °F 76.6 °F 29.96 in SSW 4.0 mph 9.0 mph 68 % 0.00 in
13:20 88.9 °F 76.5 °F 29.96 in South 3.0 mph 9.0 mph 67 % 0.00 in
13:25 89.2 °F 76.8 °F 29.95 in SSW 3.0 mph 7.0 mph 67 % 0.00 in
13:30 89.4 °F 76.1 °F 29.95 in SE 2.0 mph 7.0 mph 65 % 0.00 in
13:35 90.1 °F 77.7 °F 29.95 in SE 2.0 mph 7.0 mph 67 % 0.00 in
13:40 91.0 °F 76.3 °F 29.95 in SSW 2.0 mph 9.0 mph 62 % 0.00 in
13:45 91.4 °F 76.5 °F 29.95 in South 8.0 mph 9.0 mph 62 % 0.00 in
13:50 91.2 °F 75.9 °F 29.94 in ESE 7.0 mph 11.0 mph 61 % 0.00 in
13:55 90.9 °F 75.6 °F 29.94 in East 4.0 mph 11.0 mph 61 % 0.00 in
14:00 90.9 °F 76.5 °F 29.94 in SSW 3.0 mph 11.0 mph 63 % 0.00 in
14:05 90.7 °F 76.8 °F 29.94 in SE 5.0 mph 13.0 mph 64 % 0.00 in
14:10 90.1 °F 75.9 °F 29.94 in SSE 5.0 mph 13.0 mph 63 % 0.00 in
14:15 90.9 °F 77.0 °F 29.94 in SE 8.0 mph 13.0 mph 64 % 0.00 in
14:20 90.9 °F 76.1 °F 29.94 in SSE 4.0 mph 13.0 mph 62 % 0.00 in
14:25 90.9 °F 76.1 °F 29.94 in ESE 6.0 mph 13.0 mph 62 % 0.00 in
14:30 90.9 °F 76.5 °F 29.94 in SSE 4.0 mph 13.0 mph 63 % 0.00 in
14:35 91.8 °F 76.8 °F 29.94 in ESE 8.0 mph 10.0 mph 62 % 0.00 in
14:40 92.1 °F 76.3 °F 29.93 in SE 7.0 mph 11.0 mph 60 % 0.00 in
14:45 91.9 °F 75.6 °F 29.93 in SSE 4.0 mph 11.0 mph 59 % 0.00 in
14:50 91.8 °F 75.9 °F 29.93 in SSE 10.0 mph 12.0 mph 60 % 0.00 in
14:55 91.9 °F 76.6 °F 29.93 in ESE 8.0 mph 12.0 mph 61 % 0.00 in
15:00 92.3 °F 76.5 °F 29.93 in ESE 8.0 mph 12.0 mph 60 % 0.00 in
15:05 91.9 °F 76.6 °F 29.93 in SSW 5.0 mph 13.0 mph 61 % 0.00 in
15:10 92.1 °F 76.3 °F 29.93 in SE 13.0 mph 14.0 mph 60 % 0.00 in
15:15 92.3 °F 75.9 °F 29.93 in ESE 9.0 mph 14.0 mph 59 % 0.00 in
15:20 92.5 °F 77.0 °F 29.92 in SE 10.0 mph 15.0 mph 61 % 0.00 in
15:25 92.7 °F 77.2 °F 29.92 in SE 7.0 mph 15.0 mph 61 % 0.00 in
15:30 92.8 °F 76.8 °F 29.92 in SE 9.0 mph 15.0 mph 60 % 0.00 in
15:35 92.1 °F 77.2 °F 29.92 in SE 10.0 mph 16.0 mph 62 % 0.00 in
15:40 91.9 °F 76.6 °F 29.92 in SSE 8.0 mph 16.0 mph 61 % 0.00 in
15:45 91.6 °F 76.3 °F 29.92 in ESE 12.0 mph 16.0 mph 61 % 0.00 in
15:50 91.2 °F 76.3 °F 29.92 in SE 8.0 mph 15.0 mph 62 % 0.00 in
15:55 91.6 °F 77.2 °F 29.92 in South 13.0 mph 15.0 mph 63 % 0.00 in
16:00 91.9 °F 77.5 °F 29.92 in East 3.0 mph 15.0 mph 63 % 0.00 in
16:05 92.3 °F 76.8 °F 29.92 in SSE 6.0 mph 13.0 mph 61 % 0.00 in
16:10 91.6 °F 76.6 °F 29.92 in SSE 7.0 mph 13.0 mph 62 % 0.00 in
16:15 91.2 °F 77.4 °F 29.92 in SE 7.0 mph 14.0 mph 64 % 0.00 in
16:20 91.6 °F 76.6 °F 29.91 in SSE 8.0 mph 14.0 mph 62 % 0.00 in
16:25 91.6 °F 76.6 °F 29.91 in ESE 14.0 mph 14.0 mph 62 % 0.00 in
16:30 91.4 °F 76.5 °F 29.91 in ESE 7.0 mph 15.0 mph 62 % 0.00 in
16:35 91.6 °F 77.2 °F 29.91 in South 7.0 mph 15.0 mph 63 % 0.00 in
16:40 91.8 °F 76.8 °F 29.91 in SW 15.0 mph 15.0 mph 62 % 0.00 in
16:45 91.9 °F 76.1 °F 29.91 in SE 10.0 mph 15.0 mph 60 % 0.00 in
16:50 91.9 °F 76.6 °F 29.90 in South 7.0 mph 16.0 mph 61 % 0.00 in
16:55 91.8 °F 76.5 °F 29.90 in ESE 5.0 mph 16.0 mph 61 % 0.00 in
17:00 91.6 °F 75.7 °F 29.90 in SE 6.0 mph 16.0 mph 60 % 0.00 in
17:05 91.0 °F 75.7 °F 29.90 in SE 3.0 mph 14.0 mph 61 % 0.00 in
17:10 91.0 °F 76.6 °F 29.90 in SSW 4.0 mph 13.0 mph 63 % 0.00 in
17:15 91.0 °F 75.7 °F 29.90 in SSE 3.0 mph 13.0 mph 61 % 0.00 in
17:21 91.2 °F 75.9 °F 29.90 in South 4.0 mph 12.0 mph 61 % 0.00 in
17:26 91.2 °F 75.9 °F 29.90 in South 6.0 mph 12.0 mph 61 % 0.00 in
17:31 91.0 °F 76.3 °F 29.90 in SSE 7.0 mph 12.0 mph 62 % 0.00 in
17:36 91.0 °F 76.3 °F 29.90 in South 4.0 mph 13.0 mph 62 % 0.00 in
17:41 90.7 °F 75.9 °F 29.90 in SSW 8.0 mph 13.0 mph 62 % 0.00 in
17:46 90.3 °F 75.9 °F 29.90 in SSE 7.0 mph 13.0 mph 63 % 0.00 in
17:51 90.1 °F 76.3 °F 29.90 in South 7.0 mph 13.0 mph 64 % 0.00 in
17:52 90.1 °F 76.3 °F 29.90 in SE 5.0 mph 13.0 mph 64 % 0.00 in
17:57 90.3 °F 77.0 °F 29.90 in South 5.0 mph 15.0 mph 65 % 0.00 in
18:02 90.5 °F 76.1 °F 29.89 in East 4.0 mph 15.0 mph 63 % 0.00 in
18:07 90.1 °F 76.3 °F 29.89 in SE 8.0 mph 15.0 mph 64 % 0.00 in
18:12 90.3 °F 77.0 °F 29.89 in SSE 7.0 mph 12.0 mph 65 % 0.00 in
18:17 90.3 °F 76.5 °F 29.89 in SSE 4.0 mph 13.0 mph 64 % 0.00 in
18:22 90.0 °F 76.1 °F 29.89 in SE 5.0 mph 13.0 mph 64 % 0.00 in
18:27 89.8 °F 76.5 °F 29.89 in SE 7.0 mph 13.0 mph 65 % 0.00 in
18:32 89.8 °F 76.5 °F 29.89 in SE 12.0 mph 13.0 mph 65 % 0.00 in
18:37 89.8 °F 76.5 °F 29.89 in SE 11.0 mph 14.0 mph 65 % 0.00 in
18:38 89.8 °F 76.5 °F 29.89 in South 9.0 mph 14.0 mph 65 % 0.00 in
18:43 89.8 °F 76.5 °F 29.89 in SW 6.0 mph 14.0 mph 65 % 0.00 in
18:48 89.8 °F 75.9 °F 29.89 in SE 6.0 mph 14.0 mph 64 % 0.00 in
18:53 89.8 °F 76.5 °F 29.89 in SSE 7.0 mph 14.0 mph 65 % 0.00 in
18:58 89.8 °F 76.5 °F 29.89 in SE 4.0 mph 14.0 mph 65 % 0.00 in
19:03 89.4 °F 76.1 °F 29.89 in SSE 9.0 mph 12.0 mph 65 % 0.00 in
19:08 89.2 °F 75.9 °F 29.89 in SSE 6.0 mph 15.0 mph 65 % 0.00 in
19:13 89.2 °F 76.5 °F 29.89 in SSE 6.0 mph 15.0 mph 66 % 0.00 in
19:18 89.2 °F 76.5 °F 29.89 in ESE 5.0 mph 15.0 mph 66 % 0.00 in
19:23 89.1 °F 75.7 °F 29.89 in SSE 7.0 mph 15.0 mph 65 % 0.00 in
19:28 88.5 °F 75.7 °F 29.89 in SSE 6.0 mph 10.0 mph 66 % 0.00 in
19:33 88.2 °F 75.4 °F 29.89 in South 4.0 mph 12.0 mph 66 % 0.00 in
19:38 88.0 °F 76.1 °F 29.89 in SSE 7.0 mph 12.0 mph 68 % 0.00 in
19:43 87.6 °F 75.7 °F 29.89 in South 5.0 mph 12.0 mph 68 % 0.00 in
19:48 87.4 °F 75.9 °F 29.89 in SSE 9.0 mph 10.0 mph 69 % 0.00 in
19:53 87.3 °F 75.9 °F 29.89 in SSE 3.0 mph 12.0 mph 69 % 0.00 in
19:58 87.1 °F 75.7 °F 29.90 in SE 10.0 mph 14.0 mph 69 % 0.00 in
20:03 86.7 °F 75.4 °F 29.90 in SSE 5.0 mph 14.0 mph 69 % 0.00 in
20:08 86.5 °F 75.6 °F 29.90 in SW 4.0 mph 14.0 mph 70 % 0.00 in
20:13 86.4 °F 75.4 °F 29.90 in SSE 6.0 mph 14.0 mph 70 % 0.00 in
20:18 86.4 °F 75.9 °F 29.90 in SE 11.0 mph 12.0 mph 71 % 0.00 in
20:23 86.2 °F 75.7 °F 29.90 in SE 4.0 mph 13.0 mph 71 % 0.00 in
20:28 85.8 °F 75.4 °F 29.90 in SSE 8.0 mph 13.0 mph 71 % 0.00 in
20:33 85.6 °F 75.6 °F 29.90 in SE 6.0 mph 13.0 mph 72 % 0.00 in
20:38 85.6 °F 75.9 °F 29.90 in SSE 5.0 mph 13.0 mph 73 % 0.00 in
20:43 85.3 °F 75.6 °F 29.91 in SSE 7.0 mph 12.0 mph 73 % 0.00 in
20:48 85.1 °F 75.9 °F 29.91 in ESE 5.0 mph 11.0 mph 74 % 0.00 in
20:53 85.1 °F 75.9 °F 29.91 in SE 5.0 mph 10.0 mph 74 % 0.00 in
20:55 84.9 °F 75.7 °F 29.91 in ESE 7.0 mph 10.0 mph 74 % 0.00 in
21:00 84.9 °F 76.1 °F 29.91 in SSE 8.0 mph 13.0 mph 75 % 0.00 in
21:05 84.7 °F 75.9 °F 29.91 in SSE 5.0 mph 13.0 mph 75 % 0.00 in
21:10 84.6 °F 75.7 °F 29.91 in SE 4.0 mph 13.0 mph 75 % 0.00 in
21:15 84.4 °F 75.9 °F 29.91 in SE 4.0 mph 9.0 mph 76 % 0.00 in
21:20 84.2 °F 76.3 °F 29.91 in ESE 5.0 mph 8.0 mph 77 % 0.00 in
21:25 84.0 °F 76.1 °F 29.92 in South 8.0 mph 12.0 mph 77 % 0.00 in
21:30 83.8 °F 75.9 °F 29.92 in SE 6.0 mph 12.0 mph 77 % 0.00 in
21:35 83.8 °F 75.9 °F 29.92 in SE 4.0 mph 12.0 mph 77 % 0.00 in
21:40 83.7 °F 76.1 °F 29.93 in SE 6.0 mph 12.0 mph 78 % 0.00 in
21:45 83.5 °F 75.9 °F 29.93 in SSE 4.0 mph 10.0 mph 78 % 0.00 in
21:50 83.5 °F 75.9 °F 29.93 in SSE 2.0 mph 10.0 mph 78 % 0.00 in
21:55 83.1 °F 75.9 °F 29.94 in SSE 2.0 mph 7.0 mph 79 % 0.00 in
22:00 83.1 °F 76.3 °F 29.94 in SSE 1.0 mph 7.0 mph 80 % 0.00 in
22:02 83.1 °F 76.3 °F 29.94 in SSE 3.0 mph 7.0 mph 80 % 0.00 in
22:07 82.9 °F 76.5 °F 29.94 in SSE 3.0 mph 6.0 mph 81 % 0.00 in
22:12 82.9 °F 76.5 °F 29.94 in SSE 5.0 mph 6.0 mph 81 % 0.00 in
22:17 82.8 °F 76.6 °F 29.95 in South 2.0 mph 6.0 mph 82 % 0.00 in
22:22 82.6 °F 76.5 °F 29.96 in SE 4.0 mph 6.0 mph 82 % 0.00 in
22:27 82.4 °F 76.6 °F 29.96 in SSW 4.0 mph 6.0 mph 83 % 0.00 in
22:32 82.2 °F 76.5 °F 29.96 in SSW 2.0 mph 6.0 mph 83 % 0.00 in
22:37 82.0 °F 76.3 °F 29.96 in South 3.0 mph 6.0 mph 83 % 0.00 in
22:42 82.0 °F 76.6 °F 29.96 in SSE 2.0 mph 6.0 mph 84 % 0.00 in
22:47 81.9 °F 76.5 °F 29.97 in SE 3.0 mph 6.0 mph 84 % 0.00 in
22:52 81.9 °F 76.5 °F 29.97 in SSE 2.0 mph 6.0 mph 84 % 0.00 in
22:57 81.7 °F 76.3 °F 29.97 in South 2.0 mph 5.0 mph 84 % 0.00 in
23:02 81.7 °F 76.3 °F 29.97 in South 2.0 mph 5.0 mph 84 % 0.00 in
23:07 81.5 °F 76.3 °F 29.97 in SSW 3.0 mph 5.0 mph 84 % 0.00 in
23:12 81.3 °F 76.5 °F 29.97 in SSE 2.0 mph 5.0 mph 85 % 0.00 in
23:17 81.3 °F 76.1 °F 29.97 in SE 1.0 mph 5.0 mph 84 % 0.00 in
23:22 81.3 °F 76.5 °F 29.98 in South 1.0 mph 5.0 mph 85 % 0.00 in
23:27 81.1 °F 76.3 °F 29.98 in South 2.0 mph 4.0 mph 85 % 0.00 in
23:33 81.1 °F 76.3 °F 29.98 in SSE 2.0 mph 4.0 mph 85 % 0.00 in
23:37 81.0 °F 76.5 °F 29.97 in SW 3.0 mph 4.0 mph 86 % 0.00 in
23:43 81.0 °F 76.5 °F 29.97 in South 2.0 mph 4.0 mph 86 % 0.00 in
23:48 80.8 °F 76.3 °F 29.97 in SE 2.0 mph 4.0 mph 86 % 0.00 in
23:53 80.8 °F 76.3 °F 29.98 in SSW 1.0 mph 4.0 mph 86 % 0.00 in
23:58 80.4 °F 75.9 °F 29.98 in SSE 3.0 mph 4.0 mph 86 % 0.00 in
Spring, Texas: Villages of Bridgestone
Compliments of Weather Underground - 2.75 mb

Script developed by  Jim McMurry - jmcmurry@mwt.net Adapted for the template by  Wim van der Kuil - Leuven-Template.eu

You find our weather info also at:

UK Metoffice

WeatherCloud

Weather Underground

Mid-South Weather Network

AWEKAS

Citizen Weather Observer Program (CWOP)

HAMweather, WeatherForYou, PWS Weather

Equipment we use:

Weather-station
Davis Vantage Vue

Weather-program
Meteohub

Weather-server
Debian 7.9 x86 (Guest)

Provider
DreamHost

Davis Vantage Vue

Meteohub

Debian 7.9 x86 (Guest)

DreamHost